Regional Weather Roundup
Issued by NWS

Home | Current Version | Previous Version | Graphics & Text | Print | Product List | Glossary On
Versions: 1 2 3 4 5 6 7 8 9 10 11 12 13 14 15 16 17 18 19 20 21 22 23 24 25 26 27 28 29 30 31 32 33 34 35 36 37 38 39 40 41 42 43 44 45 46 47 48 49 50
000
ASUS43 KLOT 261806
RWRIL

ILLINOIS REGIONAL WEATHER ROUNDUP
NATIONAL WEATHER SERVICE CHICAGO/ROMEOVILLE IL
100 PM CDT SAT JUL 26 2014

NOTE: "FAIR" INDICATES FEW OR NO CLOUDS BELOW 12,000 FEET WITH NO
SIGNIFICANT WEATHER AND/OR OBSTRUCTIONS TO VISIBILITY.

* THESE STATIONS ARE NOT UNDER NWS QUALITY CONTROL. THEY ALSO MAY NOT
  REPORT WEATHER SUCH AS PRECIPITATION OR FOG.

ILZ001-002-007-009-015-016-024-261900-
NORTHWEST ILLINOIS

CITY           SKY/WX    TMP DP  RH WIND       PRES   REMARKS
MOLINE         PTSUNNY   77  68  73 E6        29.83F
6HR MIN TEMP:  68; 6HR MAX TEMP:  79;

STERLING*      PTSUNNY   79  70  73 SE7       29.81F HX  81
SAVANNA*       PTSUNNY   81  69  65 SE7       29.81S HX  84
$$

ILZ003-004-008-010-011-017-018-261900-
NORTH CENTRAL ILLINOIS

CITY           SKY/WX    TMP DP  RH WIND       PRES   REMARKS
ROCKFORD       PTSUNNY   80  67  64 SE12      29.81F HX  82
6HR MIN TEMP:  68; 6HR MAX TEMP:  82;

FREEPORT*      PTSUNNY   76  69  79 SE6       29.83S
ROCHELLE*      MOSUNNY   80  67  65 SE8       29.82F HX  82
DE KALB*       PTSUNNY   77  68  74 CALM      29.85S
PERU*          PTSUNNY   78  69  74 CALM      29.85S
$$

ILZ005-006-012>014-019>023-261900-
NORTHEAST ILLINOIS

CITY           SKY/WX    TMP DP  RH WIND       PRES   REMARKS
CHICAGO-OHARE  PTSUNNY   82  64  54 NW3       29.83F HX  83
6HR MIN TEMP:  70; 6HR MAX TEMP:  82;

CHICAGO-MIDWAY PTSUNNY   80  67  64 VRB5      29.81F HX  82
6HR MIN TEMP:  71; 6HR MAX TEMP:  82;

AURORA         PTSUNNY   80  68  66 N5        29.85R HX  83
6HR MIN TEMP:  70; 6HR MAX TEMP:  80;

LANSING*       PTSUNNY   76  66  70 CALM      29.83F
JOLIET*        MOSUNNY   77  66  69 CALM      29.83F
WAUKEGAN       PTSUNNY   75  63  66 E9        29.82F
6HR MIN TEMP:  66; 6HR MAX TEMP:  78;

DUPAGE AIRPORT MOSUNNY   80  67  64 MISG      29.84F HX  82
6HR MIN TEMP:  69; 6HR MAX TEMP:  80;

KANKAKEE*      CLOUDY    77  71  81 S5        29.84F
WHEELING       CLOUDY    81  67  62 NE7       29.85R HX  83
6HR MIN TEMP:  71; 6HR MAX TEMP:  82;

MORRIS*        PTSUNNY   78  69  74 CALM      29.83F HX  80
ROMEOVILLE*    MOSUNNY   78  66  67 CALM      29.83F HX  80
NORTHERLY ISL    N/A     74  65  73 SE8         N/A
$$

LMZ740>746-261900-
SOUTHERN LAKE MICHIGAN

STATION/POSITION SKY/WX   TEMP    WIND        PRES    VSBY  WAVE
                          AIR SEA DIR/SP/G                  HT/PER
                          (F)     (DEG/KT/KT) (MB)    (MI)  (FT/S)
SOUTHERN BUOY              65 63  160/  4/  6 1010.5F         1
WAUKEGAN HARBOR            74     160/  3/  3   N/A
HARRISON CRIB              72     130/ 11/ 12   N/A
BURNHAM HARBOR             73     100/  5/  8   N/A
CALUMET HARBOR             77     200/  1/  5 1009.1F
MICHIGAN CITY              72     260/  6/  8   N/A
MICHIGAN CITY 6N           70 69  310/  4/  6   N/A           0
ST. JOSEPH                 69 66  300/  4/  6   N/A           1
$$

ILZ025>027-034>036-040-047-049-050-058-095>099-261900-
WEST-CENTRAL ILLINOIS

CITY           SKY/WX    TMP DP  RH WIND       PRES   REMARKS
QUINCY         CLOUDY    86  74  67 SW8       29.83R HX  94
GALESBURG*     CLOUDY    77  72  82 NE5       29.85F
MACOMB*        CLOUDY    77  74  91 N6        29.86S FOG
JACKSONVILLE*  MOSUNNY   87  77  72 SW8       29.84S HX  97
PITTSFIELD*    PTSUNNY   87  75  66 SW8       29.85R HX  96
$$

ILZ028>032-037-038-041>044-048-051>054-059>061-261900-
CENTRAL ILLINOIS

CITY           SKY/WX    TMP DP  RH WIND       PRES   REMARKS
PONTIAC        CLOUDY    79  72  78 CALM      29.83S HX  82
DECATUR        CLOUDY    84  74  71 SW8       29.86R HX  91
PEORIA         CLOUDY    79  72  79 NW5       29.85R HAZE    HX  82
6HR MIN TEMP:  71; 6HR MAX TEMP:  79;

LACON*         CLOUDY    76  69  78 CALM      29.84S
LINCOLN*       CLOUDY    84  74  73 SW3       29.81R HX  91
SPRINGFIELD    CLOUDY    85  76  74 SW7       29.83F HX  94
6HR MIN TEMP:  71; 6HR MAX TEMP:  87;

TAYLORVILLE    PTSUNNY   82  75  78 SW8       29.85S HX  89
$$

ILZ033-039-045-046-055>057-062-063-261900-
EAST-CENTRAL ILLINOIS

CITY           SKY/WX    TMP DP  RH WIND       PRES   REMARKS
CHAMPAIGN      CLOUDY    83  74  74 SW9       29.87S HX  89
DANVILLE*      CLOUDY    78  73  84 SW9       29.84S HAZE    HX  81
RANTOUL*       PTSUNNY   81  72  76 SW5       29.86F HX  85
MATTOON        CLOUDY    82  73  74 SW7       29.87S HX  87
PARIS*         CLOUDY    81  74  77 SW7       29.88F HX  86
$$

ILZ079-100>102-261900-
SOUTHWEST ILLINOIS

CITY           SKY/WX    TMP DP  RH WIND       PRES   REMARKS
ALTON          SUNNY     90  77  66 SW7       29.86F HX 102
BELLEVILLE     SUNNY     93  75  56 SE3       29.85F HX 104
CAHOKIA*       SUNNY     93  73  52 VRB7      29.85F HX 102
SPARTA*        SUNNY     90  75  62 SW7       29.88F HX 100
$$

ILZ064>066-069>071-074>076-080>082-084>086-088>090-092>094-261900-
SOUTH-CENTRAL ILLINOIS

CITY           SKY/WX    TMP DP  RH WIND       PRES   REMARKS
CARBONDALE     SUNNY     89  74  60 S12       29.90F HX  98
6HR MIN TEMP:  69; 6HR MAX TEMP:  89;

CAIRO*         MOSUNNY   88  76  65 S9        29.94F HX  99
EFFINGHAM*     PTSUNNY   87  70  57 SW12      29.88S HX  91
MARION         MOSUNNY   90  73  58 S12       29.92  HX  98
MT. VERNON     SUNNY     88  73  62 SW10      29.90F HX  96
CENTRALIA*     SUNNY     90  71  53 SW13G18   29.89F HX  96
SALEM*         SUNNY     91  75  60 SW13      29.89F HX 101
METROPOLIS*    SUNNY     88  71  57 SW12      29.94F HX  94
$$

ILZ067-068-072-073-078-083-087-091-261900-
SOUTHEAST ILLINOIS

CITY           SKY/WX    TMP DP  RH WIND       PRES   REMARKS
LAWRENCEVILLE  MOSUNNY   86  74  67 SW14      29.89F HX  94
FLORA*         MOSUNNY   85  74  67 SW8       29.89F HX  93
FAIRFIELD*     MOSUNNY   88  77  70 SW10G16   29.89F HX 100
HARRISBURG*    SUNNY     87  75  67 S12       29.92F HX  95
ROBINSON*      MOSUNNY   86  76  71 SW13      29.89F HX  95
$$

ABBREVIATIONS USED IN REMARKS
   TC - TEMPERATURE IN CELSIUS
  WCI - WIND CHILL INDEX
   HX - HEAT INDEX
  VSB - VISIBILITY
$$



USA.gov is the U.S. government's official web portal to all federal, state and local government web resources and services.